Simultaneous Nadir Overpasses (SNOs) Predictions

Prediction of SNOs between AQUA and GOES-15 Satellite Orbit:

Table of predicted SNOs for the next 14.0 days since TLE Epoch: 8/17/2012
Index Date Time (AQUA) AQUA Lat,Lon GOES-15 Lat,Lon Distance(km) Time Diff (sec)
1 08/18/2012 22:16:29 0.50,-130.36 -0.43,-134.69 492.11 80
2 08/19/2012 10:37:44 0.63,-135.52 0.43,-134.67 96.69 80
3 08/21/2012 10:25:33 -0.00,-132.56 0.43,-134.59 229.94 80
4 08/21/2012 22:46:57 -1.13,-137.75 -0.42,-134.56 363.77 80
5 08/23/2012 22:34:46 -0.49,-134.80 -0.42,-134.47 38.02 80
6 08/25/2012 22:22:34 0.10,-131.84 -0.41,-134.37 286.90 80
7 08/26/2012 10:43:50 0.96,-137.00 0.41,-134.35 301.24 80
8 08/28/2012 10:31:38 0.36,-134.04 0.40,-134.25 23.13 80
9 08/30/2012 10:19:26 -0.26,-131.08 0.40,-134.14 347.55 80
10 08/30/2012 22:40:50 -0.85,-136.28 -0.39,-134.09 247.98 80




NCC Satellite Simultaneous Nadir Overpasses (SNOs) Prediction Service
